ROMMA est une association bénévole à but non lucratif. Votre soutien est indispensable : ADHERER à ROMMA ou FAIRE un DON

Taninges - (74, Haute-Savoie)

Vallée du Giffre (635 m)   Longitude: 06° 35' 38" E   Latitude: 46° 06' 21" N Station romma n°98
 

Détail journalier du     <<     >>

Température Precipitation Humidité Pression Vent Dir Rafale Dir. rafale Ensol.
Heure (°C) (mm) (%) (hPa) (km/h) (km/h) (min)
01:00 -4.408210331SSO6S0
02:00 -5.208510341S5NE0
03:00 -5.308910341N3E0
04:00 -6.309010341ENE5SSE0
05:00 -6.709110341N5ENE0
06:00 -7.2092103403ENE0
07:00 -7.9092103403SSO0
08:00 -8.1093103503SE0
09:00 -8.10931035000
10:00 -4.909310351SSE5ESE45
11:00 -2.008510351OSO5ESE60
12:00 0.307710332SSE5SSE60
13:00 1.606810332SSE6SSE60
14:00 2.406310324SO11OSO60
15:00 2.705810325OSO11SSO60
16:00 2.306110335OSO10OSO60
17:00 -0.507110341E6ENE0
18:00 -2.2078103405SO0
19:00 -1.707710342NO8ONO0
20:00 -3.708410351E5NO0
21:00 -4.7086103503ENE0
22:00 -5.908910351SE5ESE0
23:00 -6.609010351SE5SE0
minuit -6.4091103405ENE0

Graphique du 03-01-2019

 

Serveur OMMA